Weather History for KRPJ - March, 2013

Change the Weather History Date:

Sunday, March 10, 2013

  Actual Average (KRFD) Record (KRFD)
Temperature  
Mean Temperature 37 °F 35 °F  
Max Temperature 39 °F 44 °F 70 °F (1955)
Min Temperature 35 °F 26 °F -2 °F (2003)
Degree Days  
Heating Degree Days 28 30  
Month to date heating degree days 322  
Since 1 July heating degree days 5324  
Cooling Degree Days 0 0  
Month to date cooling degree days 0  
Year to date cooling degree days 0  
Moisture  
Dew Point 37 °F    
Average Humidity 98    
Maximum Humidity 100    
Minimum Humidity 87    
Precipitation  
Precipitation 0.61 in 0.07 in 1.50 in (1943)
Month to date precipitation 0.65  
Year to date precipitation 3.43  
Snow  
Snow 0.00 in 0.20 in 7.00 in (1943)
Month to date snowfall 2.1  
Since 1 July snowfall 33.1  
Snow Depth -    
Sea Level Pressure  
Sea Level Pressure 29.70 in    
Wind  
Wind Speed 13 mph (SSE)    
Max Wind Speed 22 mph    
Max Gust Speed 23 mph    
Visibility 2 miles    
Events Fog , Rain    
T = Trace of Precipitation, MM = Missing Value Source: NWS Daily Summary

Daily Weather History Graph

Daily Weather History Graph

Search for Another Location

Airport or City:

Trip Planner

Search our weather history database for the weather conditions in past years. The results will help you decide how hot, cold, wet, or windy it might be!

Date:

Astronomy

Mar. 10, 2013 Rise Set
Actual Time 7:16 AM CDT 6:57 PM CDT
Civil Twilight 6:48 AM CDT 7:25 PM CDT
Nautical Twilight 6:16 AM CDT 7:57 PM CDT
Astronomical Twilight 5:43 AM CDT 8:30 PM CDT
Moon 6:16 AM CDT (3/10) 6:05 PM CDT (3/10)
Length of Visible Light 12h 36m
Length of Day
11h 41m
Waning Crescent, 2% of the Moon is Illuminated
Mar 10
Waning Crescent
Mar 11
New
Mar 19
First Quarter
Mar 27
Full
Apr 2
Last Quarter

Hourly Weather History & Observations

Time (CDT) Temp. Windchill Dew Point Humidity Pressure Visibility Wind Dir Wind Speed Gust Speed Precip Events Conditions
12:15 AM 36.7 °F 28.0 °F 33.3 °F 87% 29.81 in 10.0 mi SSE 13.8 mph - N/A Rain Light Rain
12:35 AM 37.6 °F 28.1 °F 34.3 °F 88% 29.81 in 10.0 mi South 17.3 mph 23.0 mph 0.01 in Rain Light Rain
12:55 AM 38.3 °F 29.0 °F 35.2 °F 89% 29.81 in 7.0 mi SSE 17.3 mph - 0.02 in Rain Light Rain
1:15 AM 37.6 °F 26.9 °F 35.8 °F 93% 29.80 in 10.0 mi SSE 21.9 mph - N/A   Overcast
1:35 AM 38.7 °F 28.8 °F 36.9 °F 93% 29.79 in 5.0 mi South 19.6 mph - 0.01 in Rain Rain
1:55 AM 38.3 °F 29.3 °F 37.0 °F 95% 29.78 in 4.0 mi South 16.1 mph - 0.05 in Rain Rain
3:15 AM 36.5 °F 27.8 °F 35.6 °F 97% 29.77 in 4.0 mi SSE 13.8 mph - 0.02 in Rain Light Rain
4:15 AM 36.5 °F 29.2 °F 36.1 °F 99% 29.76 in 2.5 mi South 10.4 mph - N/A Rain Light Rain
4:35 AM 36.3 °F 26.8 °F 36.0 °F 99% 29.76 in 2.5 mi SSE 16.1 mph - 0.01 in Rain Light Rain
4:55 AM 37.0 °F 27.7 °F 36.9 °F 99% 29.76 in 3.0 mi SSE 16.1 mph - 0.02 in Rain Light Rain
5:15 AM 36.9 °F 27.5 °F 36.7 °F 99% 29.76 in 3.0 mi SSE 16.1 mph - 0.01 in Rain Light Rain
5:35 AM 36.9 °F 27.5 °F 36.7 °F 99% 29.76 in 3.0 mi SSE 16.1 mph - 0.02 in Rain Light Rain
5:55 AM 37.4 °F 29.8 °F 37.0 °F 99% 29.76 in 3.0 mi SSE 11.5 mph - 0.03 in Rain Rain
6:15 AM 37.4 °F 29.8 °F 37.2 °F 99% 29.75 in 2.5 mi SE 11.5 mph - 0.01 in Rain Light Rain
6:35 AM 37.8 °F 29.8 °F 37.6 °F 99% 29.73 in 2.5 mi SE 12.7 mph - 0.04 in Rain Light Rain
7:15 AM 37.9 °F 29.2 °F 37.8 °F 99% 29.73 in 4.0 mi SE 15.0 mph - N/A   Overcast
7:35 AM 37.8 °F 28.0 °F 37.6 °F 99% 29.73 in 2.5 mi SE 18.4 mph - N/A   Overcast
7:55 AM 37.4 °F 29.3 °F 37.2 °F 99% 29.74 in 2.5 mi SE 12.7 mph - N/A   Overcast
8:15 AM 37.6 °F 29.1 °F 37.4 °F 99% 29.76 in 3.0 mi SSE 13.8 mph - N/A   Overcast
8:35 AM 36.0 °F 28.5 °F 35.8 °F 99% 29.77 in 2.0 mi SSE 10.4 mph - N/A   Overcast
8:55 AM 36.5 °F 28.2 °F 36.3 °F 99% 29.77 in 2.5 mi SSE 12.7 mph - N/A   Overcast
9:15 AM 36.9 °F 29.1 °F 36.7 °F 99% 29.77 in 3.0 mi SSE 11.5 mph - N/A   Overcast
9:35 AM 36.9 °F 29.1 °F 36.7 °F 99% 29.76 in 3.0 mi SE 11.5 mph - N/A   Overcast
9:55 AM 38.1 °F 31.2 °F 37.6 °F 98% 29.76 in 3.0 mi SE 10.4 mph - N/A   Overcast
10:15 AM 36.7 °F 29.9 °F 36.5 °F 99% 29.77 in 2.0 mi SE 9.2 mph - N/A   Overcast
10:35 AM 36.5 °F 30.3 °F 36.5 °F 100% 29.77 in 1.8 mi SE 8.1 mph - N/A   Overcast
10:55 AM 36.5 °F 30.3 °F 36.1 °F 99% 29.77 in 1.8 mi ESE 8.1 mph - N/A   Overcast
11:15 AM 36.9 °F 30.1 °F 36.5 °F 99% 29.76 in 2.0 mi ESE 9.2 mph - N/A   Overcast
11:35 AM 37.6 °F 30.5 °F 37.4 °F 99% 29.72 in 1.5 mi East 10.4 mph - N/A   Overcast
11:55 AM 39.4 °F 33.2 °F 38.3 °F 96% 29.72 in 3.0 mi ESE 9.2 mph - N/A   Overcast
12:15 PM 37.8 °F 30.2 °F 36.9 °F 97% 29.76 in 3.0 mi SE 11.5 mph - N/A   Overcast
12:35 PM 36.7 °F 30.5 °F 36.0 °F 97% 29.74 in 2.5 mi ESE 8.1 mph - 0.01 in Rain Light Rain
12:55 PM 37.4 °F 30.8 °F 36.7 °F 97% 29.74 in 2.0 mi ESE 9.2 mph - 0.03 in Rain Light Rain
1:15 PM 37.2 °F 31.2 °F 36.9 °F 99% 29.74 in 1.2 mi ESE 8.1 mph - 0.01 in Rain Light Rain
1:35 PM 37.4 °F 31.4 °F 36.9 °F 98% 29.74 in 1.2 mi SE 8.1 mph - 0.06 in Rain Heavy Rain
1:55 PM 37.4 °F 30.8 °F 36.9 °F 98% 29.71 in 0.8 mi ESE 9.2 mph - 0.11 in Rain Light Rain
2:15 PM 37.8 °F 31.3 °F 37.4 °F 99% 29.71 in 1.0 mi ESE 9.2 mph - 0.01 in   Drizzle
2:35 PM 37.2 °F 30.6 °F 37.0 °F 99% 29.68 in 0.5 mi ESE 9.2 mph - 0.06 in Rain Light Rain
2:55 PM 39.7 °F 34.9 °F 39.4 °F 99% 29.65 in 1.0 mi East 6.9 mph - 0.08 in Rain Rain
3:15 PM 39.7 °F 33.7 °F 39.4 °F 99% 29.65 in 0.2 mi East 9.2 mph - 0.02 in Rain Rain
3:35 PM 38.3 °F 31.9 °F 37.9 °F 99% 29.66 in 0.2 mi East 9.2 mph - 0.04 in Rain Rain
3:55 PM 38.1 °F 29.5 °F 37.9 °F 99% 29.69 in 0.2 mi SE 15.0 mph - 0.13 in Rain Heavy Rain
4:15 PM 36.9 °F 31.4 °F 36.7 °F 99% 29.67 in 0.2 mi SE 6.9 mph - 0.03 in Rain Light Rain
4:35 PM 36.7 °F 31.2 °F 36.5 °F 99% 29.66 in 0.2 mi ESE 6.9 mph - 0.06 in Rain Rain
4:55 PM 38.8 °F 32.6 °F 38.7 °F 99% 29.63 in 0.2 mi ESE 9.2 mph - 0.07 in Rain Light Rain
5:15 PM 39.2 °F 31.2 °F 39.2 °F 100% 29.63 in 0.2 mi ESE 13.8 mph - N/A Fog Fog
5:35 PM 38.8 °F 31.2 °F 38.7 °F 99% 29.61 in 0.2 mi ESE 12.7 mph - N/A Fog Fog
5:55 PM 37.8 °F 29.8 °F 37.6 °F 99% 29.60 in 0.2 mi ESE 12.7 mph - N/A Fog Fog
6:15 PM 38.3 °F 30.1 °F 38.3 °F 100% 29.59 in 0.2 mi ESE 13.8 mph - N/A Fog Fog
6:35 PM 37.4 °F 29.3 °F 37.4 °F 100% 29.59 in 0.2 mi ESE 12.7 mph - N/A Fog Fog
6:55 PM 37.2 °F 30.0 °F 37.0 °F 99% 29.59 in 0.2 mi ESE 10.4 mph - N/A Fog Fog
7:15 PM 37.2 °F 30.6 °F 37.2 °F 100% 29.59 in 0.2 mi SE 9.2 mph - N/A Fog Fog
7:35 PM 38.5 °F 32.1 °F 38.3 °F 99% 29.60 in 0.5 mi SE 9.2 mph - N/A Fog Fog
7:55 PM 37.4 °F 31.4 °F 37.4 °F 100% 29.61 in 0.5 mi South 8.1 mph - N/A Fog Fog
8:15 PM 36.0 °F 31.1 °F 36.0 °F 100% 29.62 in 0.2 mi SSW 5.8 mph - N/A Fog Fog
8:35 PM 35.8 °F 29.4 °F 35.8 °F 100% 29.63 in 0.2 mi SSW 8.1 mph - N/A Fog Fog
8:55 PM 36.3 °F 30.1 °F 36.3 °F 100% 29.63 in 0.2 mi SSW 8.1 mph - N/A Fog Fog
9:15 PM 35.6 °F 28.6 °F 35.6 °F 100% 29.63 in 0.2 mi South 9.2 mph - N/A   Overcast
9:35 PM 35.8 °F 28.8 °F 35.8 °F 100% 29.62 in 0.2 mi South 9.2 mph - N/A Rain Rain
9:55 PM 35.8 °F 30.1 °F 35.8 °F 100% 29.63 in 0.2 mi SSW 6.9 mph - N/A Rain Light Rain
10:15 PM 35.2 °F 29.5 °F 35.2 °F 100% 29.63 in 0.2 mi South 6.9 mph - N/A Fog Fog
10:35 PM 35.6 °F 29.2 °F 35.6 °F 100% 29.63 in 0.5 mi South 8.1 mph - N/A   Light Drizzle
10:55 PM 37.4 °F 30.8 °F 37.4 °F 100% 29.63 in 0.5 mi SSW 9.2 mph - 0.01 in   Drizzle
11:15 PM 36.5 °F 29.2 °F 36.5 °F 100% 29.63 in 0.5 mi South 10.4 mph - N/A Rain Rain
11:35 PM 36.5 °F 29.7 °F 36.5 °F 100% 29.63 in 0.2 mi South 9.2 mph - N/A Fog Fog
11:55 PM 35.8 °F 28.8 °F 35.8 °F 100% 29.63 in 0.2 mi South 9.2 mph - N/A Fog Fog
12:15 AM 35.6 °F 28.6 °F 35.6 °F 100% 29.63 in 0.2 mi South 9.2 mph - N/A Fog Fog
12:35 AM 37.4 °F 30.8 °F 37.4 °F 100% 29.63 in 0.2 mi SSW 9.2 mph - N/A Rain Light Rain
12:55 AM 36.7 °F 30.5 °F 36.7 °F 100% 29.63 in 0.2 mi SSW 8.1 mph - N/A Fog Fog